Location: Grums
(59.3529°N, 13.1129°E)
Time: 01:51:08
(UTC+01:00)

SEEDS - Pass Details

Date: 28 November 2021
Orbit: 584 x 600 km, 97.6° (Epoch: 27 January)

Event Time Altitude Azimuth Distance (km) Brightness Sun altitude
Rises 07:33:29 0° 9° (N) 2,836 ? -6.7°
Reaches altitude 10° 07:38:03 10° 322° (NW) 1,924 ? -6.2°
Maximum altitude 07:38:15 10° 320° (NW) 1,922 ? -6.2°
Drops below altitude 10° 07:38:28 10° 317° (NW) 1,924 ? -6.1°
Enters shadow 07:40:46 - 288° (WNW) 2,208 ? -5.9°
